Jonesboro, AR

10:24 PM CST on November 22, 2017 (GMT -0600)
Jonesboro Municipal

Weather History for KJBR - April, 2013

Change the Weather History Date:

Tuesday, April 9, 2013

  Actual Average Record
Temperature  
Mean Temperature 72 °F 58 °F  
Max Temperature 83 °F 68 °F 88 °F (1900)
Min Temperature 60 °F 47 °F 28 °F (1918)
Degree Days  
Heating Degree Days 0 8  
Month to date heating degree days 93 84  
Since 1 July heating degree days 3336 3504  
Cooling Degree Days 7 1  
Month to date cooling degree days 10 9  
Year to date cooling degree days 10 15  
Growing Degree Days 21 (Base 50)    
Moisture  
Dew Point 61 °F    
Average Humidity 71    
Maximum Humidity 90    
Minimum Humidity 51    
Precipitation  
Precipitation 0.00 in 0.16 in 3.17 in (1944)
Month to date precipitation 0.04 1.33  
Year to date precipitation 11.92 12.98  
Snow  
Snow 0.00 in - - ()
Month to date snowfall 0.0  
Snow Depth 0.00 in    
Sea Level Pressure  
Sea Level Pressure 29.89 in    
Wind  
Wind Speed 12 mph (South)    
Max Wind Speed 28 mph    
Max Gust Speed 36 mph    
Visibility 10 miles    
Events      
T = Trace of Precipitation, MM = Missing Value Source: NWS Daily Summary

Daily Weather History Graph

Daily Weather History Graph

Search for Another Location

Airport or City:

Trip Planner

Search our weather history database for the weather conditions in past years. The results will help you decide how hot, cold, wet, or windy it might be!

Date:

Astronomy

Apr. 09, 2013 Rise Set
Actual Time 6:37 AM CDT 7:31 PM CDT
Civil Twilight 6:11 AM CDT 7:57 PM CDT
Nautical Twilight 5:40 AM CDT 8:28 PM CDT
Astronomical Twilight 5:08 AM CDT 9:00 PM CDT
Moon 5:59 AM CDT (4/9) 7:06 PM CDT (4/9)
Length of Visible Light 13h 46m
Length of Day
12h 53m
Waning Crescent, 1% of the Moon is Illuminated
Apr 9
Waning Crescent
Apr 10
New
Apr 18
First Quarter
Apr 25
Full
May 2
Last Quarter

Hourly Weather History & Observations

Time (CDT) Temp. Heat Index Dew Point Humidity Pressure Visibility Wind Dir Wind Speed Gust Speed Precip Events Conditions
12:53 AM 64.9 °F - 55.0 °F 70% 29.87 in 10.0 mi SSE 8.1 mph - N/A   Partly Cloudy
1:53 AM 63.0 °F - 55.9 °F 78% 29.86 in 10.0 mi South 5.8 mph - N/A   Clear
2:53 AM 64.0 °F - 57.0 °F 78% 29.85 in 10.0 mi South 8.1 mph - N/A   Mostly Cloudy
3:53 AM 63.0 °F - 57.9 °F 84% 29.87 in 10.0 mi South 8.1 mph - N/A   Clear
4:53 AM 62.1 °F - 57.9 °F 86% 29.88 in 10.0 mi South 6.9 mph - N/A   Partly Cloudy
5:11 AM 62.6 °F - 57.2 °F 82% 29.89 in 10.0 mi South 5.8 mph - N/A   Mostly Cloudy
5:53 AM 62.1 °F - 57.9 °F 86% 29.91 in 10.0 mi South 4.6 mph - N/A   Overcast
6:53 AM 60.1 °F - 57.0 °F 90% 29.92 in 10.0 mi Calm Calm - N/A   Partly Cloudy
7:31 AM 62.6 °F - 59.0 °F 88% 29.93 in 10.0 mi South 5.8 mph - N/A   Mostly Cloudy
7:53 AM 64.0 °F - 60.1 °F 87% 29.94 in 10.0 mi South 9.2 mph - N/A   Overcast
8:53 AM 69.1 °F - 60.1 °F 73% 29.94 in 10.0 mi South 13.8 mph 21.9 mph N/A   Overcast
9:11 AM 69.8 °F - 60.8 °F 73% 29.95 in 10.0 mi South 17.3 mph 24.2 mph N/A   Mostly Cloudy
9:53 AM 72.0 °F - 64.0 °F 76% 29.95 in 10.0 mi South 15.0 mph 27.6 mph N/A   Mostly Cloudy
10:16 AM 71.6 °F - 64.4 °F 78% 29.96 in 10.0 mi South 19.6 mph 26.5 mph N/A   Mostly Cloudy
10:53 AM 73.0 °F - 64.9 °F 76% 29.95 in 10.0 mi South 17.3 mph 23.0 mph N/A   Mostly Cloudy
11:53 AM 75.0 °F - 64.9 °F 71% 29.94 in 10.0 mi SSE 21.9 mph 25.3 mph N/A   Overcast
12:53 PM 78.1 °F - 64.9 °F 64% 29.92 in 10.0 mi South 17.3 mph - N/A   Mostly Cloudy
1:53 PM 79.0 °F - 63.0 °F 58% 29.89 in 10.0 mi SSW 24.2 mph 33.4 mph N/A   Clear
2:53 PM 82.9 °F 83.7 °F 62.1 °F 49% 29.88 in 10.0 mi SSW 19.6 mph 34.5 mph N/A   Partly Cloudy
3:53 PM 81.0 °F 81.9 °F 62.1 °F 52% 29.86 in 10.0 mi South 16.1 mph 25.3 mph N/A   Overcast
4:53 PM 81.0 °F 82.5 °F 64.0 °F 56% 29.85 in 10.0 mi South 16.1 mph 27.6 mph N/A   Mostly Cloudy
5:53 PM 82.0 °F 83.4 °F 64.0 °F 54% 29.84 in 10.0 mi South 16.1 mph 23.0 mph N/A   Scattered Clouds
6:53 PM 80.1 °F 81.9 °F 64.9 °F 60% 29.84 in 10.0 mi South 10.4 mph - N/A   Clear
7:53 PM 78.1 °F - 64.0 °F 62% 29.85 in 10.0 mi South 11.5 mph - N/A   Clear
8:53 PM 75.0 °F - 64.0 °F 69% 29.87 in 10.0 mi SSE 9.2 mph - N/A   Partly Cloudy
9:53 PM 75.0 °F - 64.0 °F 69% 29.85 in 10.0 mi SE 10.4 mph - N/A   Clear
10:53 PM 73.0 °F - 64.0 °F 73% 29.86 in 10.0 mi SE 6.9 mph - N/A   Overcast
11:53 PM 72.0 °F - 64.9 °F 78% 29.86 in 10.0 mi South 9.2 mph - N/A   Partly Cloudy